����������;��������(kWh)
2016-06-13 00:00;88,5
2016-06-13 00:15;93,25
2016-06-13 00:30;98,25
2016-06-13 00:45;94,6
2016-06-13 01:00;100,95
2016-06-13 01:15;116,4
2016-06-13 01:30;107,85
2016-06-13 01:45;97,3
2016-06-13 02:00;97,25
2016-06-13 02:15;96,2
2016-06-13 02:30;94,4
2016-06-13 02:45;93,95
2016-06-13 03:00;93,75
2016-06-13 03:15;94,05
2016-06-13 03:30;93,05
2016-06-13 03:45;95,2
2016-06-13 04:00;95,85
2016-06-13 04:15;93,45
2016-06-13 04:30;93,45
2016-06-13 04:45;92,15
2016-06-13 05:00;92,7
2016-06-13 05:15;96,2
2016-06-13 05:30;90,7
2016-06-13 05:45;93,1
2016-06-13 06:00;99,45
2016-06-13 06:15;94,25
2016-06-13 06:30;93,25
2016-06-13 06:45;95,3
2016-06-13 07:00;92,3
2016-06-13 07:15;97,35
2016-06-13 07:30;97,35
2016-06-13 07:45;105,05
2016-06-13 08:00;113
2016-06-13 08:15;123,4
2016-06-13 08:30;129,3
2016-06-13 08:45;139,4
2016-06-13 09:00;142,95
2016-06-13 09:15;145,2
2016-06-13 09:30;153,85
2016-06-13 09:45;153,55
2016-06-13 10:00;159,85
2016-06-13 10:15;159,35
2016-06-13 10:30;172,45
2016-06-13 10:45;223,35
2016-06-13 11:00;249,3
2016-06-13 11:15;243,05
2016-06-13 11:30;223,1
2016-06-13 11:45;213,5
2016-06-13 12:00;224,05
2016-06-13 12:15;220,6
2016-06-13 12:30;226,7
2016-06-13 12:45;226,55
2016-06-13 13:00;224,7
2016-06-13 13:15;222,75
2016-06-13 13:30;230,35
2016-06-13 13:45;220
2016-06-13 14:00;201,1
2016-06-13 14:15;194,3
2016-06-13 14:30;207,3
2016-06-13 14:45;194,2
2016-06-13 15:00;196,65
2016-06-13 15:15;194,15
2016-06-13 15:30;177,1
2016-06-13 15:45;182
2016-06-13 16:00;184,95
2016-06-13 16:15;166,75
2016-06-13 16:30;160,75
2016-06-13 16:45;164,4
2016-06-13 17:00;163,85
2016-06-13 17:15;157,9
2016-06-13 17:30;158,15
2016-06-13 17:45;174,15
2016-06-13 18:00;181,7
2016-06-13 18:15;172
2016-06-13 18:30;157,35
2016-06-13 18:45;150,8
2016-06-13 19:00;147,9
2016-06-13 19:15;139,75
2016-06-13 19:30;130,4
2016-06-13 19:45;132,8
2016-06-13 20:00;130,55
2016-06-13 20:15;130,95
2016-06-13 20:30;131,6
2016-06-13 20:45;128,35
2016-06-13 21:00;127,9
2016-06-13 21:15;122,1
2016-06-13 21:30;122,35
2016-06-13 21:45;110,2
2016-06-13 22:00;111
2016-06-13 22:15;108,35
2016-06-13 22:30;105,75
2016-06-13 22:45;106
2016-06-13 23:00;111,8
2016-06-13 23:15;98
2016-06-13 23:30;99,5
2016-06-13 23:45;101,85
2016-06-14 00:00;85,7
2016-06-14 00:15;87,05
2016-06-14 00:30;88,2
2016-06-14 00:45;90,4
2016-06-14 01:00;88,45
2016-06-14 01:15;90,1
2016-06-14 01:30;90,7
2016-06-14 01:45;90,2
2016-06-14 02:00;89,15
2016-06-14 02:15;84,8
2016-06-14 02:30;82,05
2016-06-14 02:45;80,05
2016-06-14 03:00;82,4
2016-06-14 03:15;80,05
2016-06-14 03:30;79,25
2016-06-14 03:45;80,8
2016-06-14 04:00;79,9
2016-06-14 04:15;77,95
2016-06-14 04:30;77,85
2016-06-14 04:45;78,65
2016-06-14 05:00;77,35
2016-06-14 05:15;98,6
2016-06-14 05:30;92,25
2016-06-14 05:45;90,35
2016-06-14 06:00;89,6
2016-06-14 06:15;98,8
2016-06-14 06:30;91,85
2016-06-14 06:45;90,9
2016-06-14 07:00;89,75
2016-06-14 07:15;95,6
2016-06-14 07:30;99,15
2016-06-14 07:45;158,6
2016-06-14 08:00;154,45
2016-06-14 08:15;109,25
2016-06-14 08:30;132,6
2016-06-14 08:45;138,6
2016-06-14 09:00;139
2016-06-14 09:15;160,15
2016-06-14 09:30;167,3
2016-06-14 09:45;184,25
2016-06-14 10:00;188,6
2016-06-14 10:15;190,1
2016-06-14 10:30;191,85
2016-06-14 10:45;200,75
2016-06-14 11:00;193,6
2016-06-14 11:15;198,05
2016-06-14 11:30;208,15
2016-06-14 11:45;212,35
2016-06-14 12:00;205,7
2016-06-14 12:15;218,6
2016-06-14 12:30;221,15
2016-06-14 12:45;226,4
2016-06-14 13:00;233,9
2016-06-14 13:15;237,15
2016-06-14 13:30;232,6
2016-06-14 13:45;231,75
2016-06-14 14:00;231,35
2016-06-14 14:15;228,2
2016-06-14 14:30;248,75
2016-06-14 14:45;239,6
2016-06-14 15:00;241,45
2016-06-14 15:15;235,15
2016-06-14 15:30;231,65
2016-06-14 15:45;225,4
2016-06-14 16:00;222,3
2016-06-14 16:15;216,65
2016-06-14 16:30;190,7
2016-06-14 16:45;193,55
2016-06-14 17:00;188,7
2016-06-14 17:15;191,1
2016-06-14 17:30;176,1
2016-06-14 17:45;178,35
2016-06-14 18:00;177,5
2016-06-14 18:15;164,8
2016-06-14 18:30;160,2
2016-06-14 18:45;162,6
2016-06-14 19:00;160,5
2016-06-14 19:15;146,8
2016-06-14 19:30;150,95
2016-06-14 19:45;144,15
2016-06-14 20:00;135,75
2016-06-14 20:15;139,3
2016-06-14 20:30;130,25
2016-06-14 20:45;144,35
2016-06-14 21:00;131,8
2016-06-14 21:15;131,1
2016-06-14 21:30;140
2016-06-14 21:45;126,35
2016-06-14 22:00;139,5
2016-06-14 22:15;130,15
2016-06-14 22:30;127,25
2016-06-14 22:45;127,65
2016-06-14 23:00;121,55
2016-06-14 23:15;117,55
2016-06-14 23:30;99,45
2016-06-14 23:45;106,75
2016-06-15 00:00;97,9
2016-06-15 00:15;90,3
2016-06-15 00:30;100,4
2016-06-15 00:45;85,55
2016-06-15 01:00;97,9
2016-06-15 01:15;87,85
2016-06-15 01:30;97
2016-06-15 01:45;91,7
2016-06-15 02:00;90,65
2016-06-15 02:15;96,25
2016-06-15 02:30;85,1
2016-06-15 02:45;95,5
2016-06-15 03:00;84
2016-06-15 03:15;97
2016-06-15 03:30;87
2016-06-15 03:45;91,9
2016-06-15 04:00;92,3
2016-06-15 04:15;86,05
2016-06-15 04:30;95,3
2016-06-15 04:45;83,8
2016-06-15 05:00;93,85
2016-06-15 05:15;85,5
2016-06-15 05:30;112,4
2016-06-15 05:45;115,1
2016-06-15 06:00;117,6
2016-06-15 06:15;122,4
2016-06-15 06:30;104
2016-06-15 06:45;116,75
2016-06-15 07:00;103,3
2016-06-15 07:15;115,15
2016-06-15 07:30;105,5
2016-06-15 07:45;118,45
2016-06-15 08:00;123,2
2016-06-15 08:15;120
2016-06-15 08:30;127,8
2016-06-15 08:45;121,35
2016-06-15 09:00;134,1
2016-06-15 09:15;135,8
2016-06-15 09:30;143,5
2016-06-15 09:45;149,65
2016-06-15 10:00;155,9
2016-06-15 10:15;164,65
2016-06-15 10:30;163,65
2016-06-15 10:45;179,95
2016-06-15 11:00;184
2016-06-15 11:15;200,7
2016-06-15 11:30;205,3
2016-06-15 11:45;213,4
2016-06-15 12:00;199,7
2016-06-15 12:15;212,3
2016-06-15 12:30;215,8
2016-06-15 12:45;205,45
2016-06-15 13:00;210,3
2016-06-15 13:15;203,6
2016-06-15 13:30;199,25
2016-06-15 13:45;213,3
2016-06-15 14:00;214,25
2016-06-15 14:15;228,15
2016-06-15 14:30;224,95
2016-06-15 14:45;209,15
2016-06-15 15:00;220,2
2016-06-15 15:15;202,65
2016-06-15 15:30;219,8
2016-06-15 15:45;214,65
2016-06-15 16:00;205,1
2016-06-15 16:15;190,25
2016-06-15 16:30;196,95
2016-06-15 16:45;183,35
2016-06-15 17:00;178,75
2016-06-15 17:15;180,7
2016-06-15 17:30;165,25
2016-06-15 17:45;172,65
2016-06-15 18:00;166,2
2016-06-15 18:15;167,4
2016-06-15 18:30;165,25
2016-06-15 18:45;151,15
2016-06-15 19:00;150,75
2016-06-15 19:15;139,65
2016-06-15 19:30;137,5
2016-06-15 19:45;134,3
2016-06-15 20:00;132,05
2016-06-15 20:15;125,45
2016-06-15 20:30;114,65
2016-06-15 20:45;115,25
2016-06-15 21:00;114,1
2016-06-15 21:15;112,1
2016-06-15 21:30;116
2016-06-15 21:45;108,5
2016-06-15 22:00;107,1
2016-06-15 22:15;106,3
2016-06-15 22:30;104,9
2016-06-15 22:45;104,85
2016-06-15 23:00;109,65
2016-06-15 23:15;100,55
2016-06-15 23:30;97,35
2016-06-15 23:45;103
2016-06-16 00:00;84,75
2016-06-16 00:15;84,9
2016-06-16 00:30;82,8
2016-06-16 00:45;80,35
2016-06-16 01:00;81,2
2016-06-16 01:15;76,9
2016-06-16 01:30;79,2
2016-06-16 01:45;79,1
2016-06-16 02:00;77,4
2016-06-16 02:15;79,1
2016-06-16 02:30;78,8
2016-06-16 02:45;80,35
2016-06-16 03:00;79,15
2016-06-16 03:15;80,3
2016-06-16 03:30;79,75
2016-06-16 03:45;80,25
2016-06-16 04:00;81,2
2016-06-16 04:15;77,3
2016-06-16 04:30;79,2
2016-06-16 04:45;76,95
2016-06-16 05:00;77,1
2016-06-16 05:15;78,35
2016-06-16 05:30;75,5
2016-06-16 05:45;81,25
2016-06-16 06:00;84,7
2016-06-16 06:15;107,65
2016-06-16 06:30;107,5
2016-06-16 06:45;102,05
2016-06-16 07:00;101,9
2016-06-16 07:15;102,55
2016-06-16 07:30;100,65
2016-06-16 07:45;163,2
2016-06-16 08:00;160,25
2016-06-16 08:15;124,7
2016-06-16 08:30;140,9
2016-06-16 08:45;147,9
2016-06-16 09:00;138,85
2016-06-16 09:15;170,35
2016-06-16 09:30;176,3
2016-06-16 09:45;171,45
2016-06-16 10:00;177
2016-06-16 10:15;191,95
2016-06-16 10:30;196,6
2016-06-16 10:45;209,8
2016-06-16 11:00;208,7
2016-06-16 11:15;226
2016-06-16 11:30;254,05
2016-06-16 11:45;255,85
2016-06-16 12:00;252,3
2016-06-16 12:15;249,75
2016-06-16 12:30;251
2016-06-16 12:45;256,6
2016-06-16 13:00;262,1
2016-06-16 13:15;254,45
2016-06-16 13:30;243,5
2016-06-16 13:45;248,9
2016-06-16 14:00;142,1
2016-06-16 14:15;195,15
2016-06-16 14:30;196,2
2016-06-16 14:45;195,1
2016-06-16 15:00;222,05
2016-06-16 15:15;215,95
2016-06-16 15:30;191,75
2016-06-16 15:45;202,2
2016-06-16 16:00;176,9
2016-06-16 16:15;187,7
2016-06-16 16:30;188,5
2016-06-16 16:45;176,35
2016-06-16 17:00;188
2016-06-16 17:15;181,85
2016-06-16 17:30;170,1
2016-06-16 17:45;171,4
2016-06-16 18:00;175,8
2016-06-16 18:15;171,6
2016-06-16 18:30;177
2016-06-16 18:45;157,35
2016-06-16 19:00;156,25
2016-06-16 19:15;145,5
2016-06-16 19:30;139,25
2016-06-16 19:45;133,3
2016-06-16 20:00;129,95
2016-06-16 20:15;127,9
2016-06-16 20:30;115,65
2016-06-16 20:45;121,25
2016-06-16 21:00;119,1
2016-06-16 21:15;123,4
2016-06-16 21:30;118,65
2016-06-16 21:45;114,6
2016-06-16 22:00;112,75
2016-06-16 22:15;109,05
2016-06-16 22:30;105,6
2016-06-16 22:45;105,1
2016-06-16 23:00;110,1
2016-06-16 23:15;111,2
2016-06-16 23:30;113,15
2016-06-16 23:45;115,7
2016-06-17 00:00;100,6
2016-06-17 00:15;95,4
2016-06-17 00:30;88,1
2016-06-17 00:45;82,2
2016-06-17 01:00;82,2
2016-06-17 01:15;84,05
2016-06-17 01:30;79,45
2016-06-17 01:45;82,55
2016-06-17 02:00;79,25
2016-06-17 02:15;80,65
2016-06-17 02:30;82,45
2016-06-17 02:45;78,95
2016-06-17 03:00;80,15
2016-06-17 03:15;79,35
2016-06-17 03:30;77,25
2016-06-17 03:45;79,95
2016-06-17 04:00;78,45
2016-06-17 04:15;77,8
2016-06-17 04:30;77,7
2016-06-17 04:45;75,25
2016-06-17 05:00;75,95
2016-06-17 05:15;74,9
2016-06-17 05:30;76,3
2016-06-17 05:45;79,95
2016-06-17 06:00;79,35
2016-06-17 06:15;97
2016-06-17 06:30;91,35
2016-06-17 06:45;112,9
2016-06-17 07:00;109,05
2016-06-17 07:15;110,3
2016-06-17 07:30;105,6
2016-06-17 07:45;165,05
2016-06-17 08:00;169,8
2016-06-17 08:15;155,85
2016-06-17 08:30;133,05
2016-06-17 08:45;137,45
2016-06-17 09:00;160,7
2016-06-17 09:15;153,2
2016-06-17 09:30;168,35
2016-06-17 09:45;168,4
2016-06-17 10:00;175,3
2016-06-17 10:15;185,25
2016-06-17 10:30;206,5
2016-06-17 10:45;213,25
2016-06-17 11:00;222,35
2016-06-17 11:15;235,1
2016-06-17 11:30;235,4
2016-06-17 11:45;248,2
2016-06-17 12:00;263,5
2016-06-17 12:15;253,7
2016-06-17 12:30;267,95
2016-06-17 12:45;267,6
2016-06-17 13:00;263,45
2016-06-17 13:15;248,5
2016-06-17 13:30;246,65
2016-06-17 13:45;244,65
2016-06-17 14:00;243
2016-06-17 14:15;241,1
2016-06-17 14:30;239,8
2016-06-17 14:45;229,15
2016-06-17 15:00;219,85
2016-06-17 15:15;220,2
2016-06-17 15:30;218,1
2016-06-17 15:45;208,5
2016-06-17 16:00;202,1
2016-06-17 16:15;191,9
2016-06-17 16:30;192,7
2016-06-17 16:45;194,95
2016-06-17 17:00;188,25
2016-06-17 17:15;177,9
2016-06-17 17:30;177,45
2016-06-17 17:45;170,35
2016-06-17 18:00;165,65
2016-06-17 18:15;163,6
2016-06-17 18:30;158,65
2016-06-17 18:45;157,65
2016-06-17 19:00;158,4
2016-06-17 19:15;141,95
2016-06-17 19:30;142,45
2016-06-17 19:45;140,3
2016-06-17 20:00;130,7
2016-06-17 20:15;124,55
2016-06-17 20:30;122,15
2016-06-17 20:45;119,95
2016-06-17 21:00;120,3
2016-06-17 21:15;120,4
2016-06-17 21:30;118,35
2016-06-17 21:45;110,15
2016-06-17 22:00;106,95
2016-06-17 22:15;104,55
2016-06-17 22:30;103,15
2016-06-17 22:45;110,5
2016-06-17 23:00;112,35
2016-06-17 23:15;111,75
2016-06-17 23:30;112,75
2016-06-17 23:45;112,2
2016-06-18 00:00;98,7
2016-06-18 00:15;98,1
2016-06-18 00:30;91,65
2016-06-18 00:45;91,65
2016-06-18 01:00;83,35
2016-06-18 01:15;80,75
2016-06-18 01:30;80,7
2016-06-18 01:45;81,2
2016-06-18 02:00;78,65
2016-06-18 02:15;82,15
2016-06-18 02:30;79,65
2016-06-18 02:45;77,35
2016-06-18 03:00;78,65
2016-06-18 03:15;78,25
2016-06-18 03:30;75,5
2016-06-18 03:45;77,7
2016-06-18 04:00;78,4
2016-06-18 04:15;76,2
2016-06-18 04:30;76,8
2016-06-18 04:45;74,85
2016-06-18 05:00;72,95
2016-06-18 05:15;74,8
2016-06-18 05:30;73,05
2016-06-18 05:45;73,85
2016-06-18 06:00;73,7
2016-06-18 06:15;69,9
2016-06-18 06:30;75,75
2016-06-18 06:45;75,45
2016-06-18 07:00;74,75
2016-06-18 07:15;75,3
2016-06-18 07:30;78,7
2016-06-18 07:45;78,5
2016-06-18 08:00;75,45
2016-06-18 08:15;78,4
2016-06-18 08:30;78,8
2016-06-18 08:45;84,3
2016-06-18 09:00;81,1
2016-06-18 09:15;88,95
2016-06-18 09:30;86,35
2016-06-18 09:45;86,85
2016-06-18 10:00;82,95
2016-06-18 10:15;90,55
2016-06-18 10:30;88,35
2016-06-18 10:45;93,4
2016-06-18 11:00;94,5
2016-06-18 11:15;97,5
2016-06-18 11:30;97,45
2016-06-18 11:45;95,85
2016-06-18 12:00;94,2
2016-06-18 12:15;94,1
2016-06-18 12:30;98,8
2016-06-18 12:45;101,65
2016-06-18 13:00;101
2016-06-18 13:15;101,65
2016-06-18 13:30;101,2
2016-06-18 13:45;100,25
2016-06-18 14:00;96,85
2016-06-18 14:15;96,85
2016-06-18 14:30;95,9
2016-06-18 14:45;94,9
2016-06-18 15:00;96,6
2016-06-18 15:15;94,65
2016-06-18 15:30;96,1
2016-06-18 15:45;96,4
2016-06-18 16:00;95,1
2016-06-18 16:15;97,7
2016-06-18 16:30;103,65
2016-06-18 16:45;98,95
2016-06-18 17:00;96,3
2016-06-18 17:15;88,6
2016-06-18 17:30;93,4
2016-06-18 17:45;95,15
2016-06-18 18:00;94,25
2016-06-18 18:15;104,15
2016-06-18 18:30;100,25
2016-06-18 18:45;105,55
2016-06-18 19:00;106,85
2016-06-18 19:15;101,7
2016-06-18 19:30;106,7
2016-06-18 19:45;109,7
2016-06-18 20:00;107,45
2016-06-18 20:15;99,95
2016-06-18 20:30;98,75
2016-06-18 20:45;102,25
2016-06-18 21:00;100,3
2016-06-18 21:15;103,5
2016-06-18 21:30;101,85
2016-06-18 21:45;94,25
2016-06-18 22:00;93,05
2016-06-18 22:15;90,25
2016-06-18 22:30;90,25
2016-06-18 22:45;88,95
2016-06-18 23:00;102,1
2016-06-18 23:15;101,7
2016-06-18 23:30;101,6
2016-06-18 23:45;105,75
2016-06-19 00:00;87,5
2016-06-19 00:15;83,4
2016-06-19 00:30;83,65
2016-06-19 00:45;85,05
2016-06-19 01:00;82,55
2016-06-19 01:15;80,5
2016-06-19 01:30;79,5
2016-06-19 01:45;81,8
2016-06-19 02:00;80,15
2016-06-19 02:15;80,55
2016-06-19 02:30;81,65
2016-06-19 02:45;0
2016-06-19 03:00;0
2016-06-19 03:15;0
2016-06-19 03:30;0
2016-06-19 03:45;0
2016-06-19 04:00;0
2016-06-19 04:15;0
2016-06-19 04:30;0
2016-06-19 04:45;0
2016-06-19 05:00;0
2016-06-19 05:15;0
2016-06-19 05:30;0
2016-06-19 05:45;0
2016-06-19 06:00;0
2016-06-19 06:15;0
2016-06-19 06:30;0
2016-06-19 06:45;0
2016-06-19 07:00;0
2016-06-19 07:15;0
2016-06-19 07:30;0
2016-06-19 07:45;0
2016-06-19 08:00;0
2016-06-19 08:15;0
2016-06-19 08:30;0
2016-06-19 08:45;0
2016-06-19 09:00;0
2016-06-19 09:15;0
2016-06-19 09:30;0
2016-06-19 09:45;0
2016-06-19 10:00;0
2016-06-19 10:15;0
2016-06-19 10:30;0
2016-06-19 10:45;0
2016-06-19 11:00;0
2016-06-19 11:15;0
2016-06-19 11:30;0
2016-06-19 11:45;0
2016-06-19 12:00;0
2016-06-19 12:15;0
2016-06-19 12:30;0
2016-06-19 12:45;0
2016-06-19 13:00;0
2016-06-19 13:15;0
2016-06-19 13:30;0
2016-06-19 13:45;0
2016-06-19 14:00;0
2016-06-19 14:15;0
2016-06-19 14:30;0
2016-06-19 14:45;0
2016-06-19 15:00;0
2016-06-19 15:15;0
2016-06-19 15:30;0
2016-06-19 15:45;0
2016-06-19 16:00;0
2016-06-19 16:15;0
2016-06-19 16:30;0
2016-06-19 16:45;0
2016-06-19 17:00;0
2016-06-19 17:15;0
2016-06-19 17:30;0
2016-06-19 17:45;0
2016-06-19 18:00;0
2016-06-19 18:15;0
2016-06-19 18:30;0
2016-06-19 18:45;0
2016-06-19 19:00;0
2016-06-19 19:15;0
2016-06-19 19:30;0
2016-06-19 19:45;0
2016-06-19 20:00;0
2016-06-19 20:15;0
2016-06-19 20:30;0
2016-06-19 20:45;0
2016-06-19 21:00;0
2016-06-19 21:15;0
2016-06-19 21:30;0
2016-06-19 21:45;0
2016-06-19 22:00;0
2016-06-19 22:15;0
2016-06-19 22:30;0
2016-06-19 22:45;0
2016-06-19 23:00;0
2016-06-19 23:15;0
2016-06-19 23:30;0
2016-06-19 23:45;0

